Waarnemingen

Advertentie
Mijn weer
Capo Caccia, Italië (16522): temperatuur & dauwpunt: 17.10.2018 22:00:00 - 23.10.2018 22:00:00 (CEST)Capo Caccia, Italië (16522): windsnelheid: 17.10.2018 22:00:00 - 23.10.2018 22:00:00 (CEST)Capo Caccia, Italië (16522): windrichting: 17.10.2018 22:00:00 - 23.10.2018 22:00:00 (CEST)Capo Caccia, Italië (16522): luchtdruk: 17.10.2018 22:00:00 - 23.10.2018 22:00:00 (CEST)Capo Caccia, Italië (16522): zicht: 17.10.2018 22:00:00 - 23.10.2018 22:00:00 (CEST)Capo Caccia, Italië (16522): Zonneschijnduur: 17.10.2018 22:00:00 - 23.10.2018 22:00:00 (CEST)
Datum & Tijd tt [°C] td [°C] ff [km/u] ff [kn] dd ppp [hPa] vv [km] sd [min]
23.10.2018 22:00:00 17,2 15,4 11 6 N 1019,6 20 -
23.10.2018 21:00:00 17,2 14,3 13 7 N 1019,7 20 -
23.10.2018 20:00:00 18,4 14,9 18 10 N 1019,5 20 0
23.10.2018 19:00:00 18,6 14,3 21 11 NNW 1019,0 20 30
23.10.2018 18:00:00 20,0 14,1 16 9 NNW 1018,9 20 60
23.10.2018 17:00:00 20,4 13,6 11 6 NNW 1019,0 20 60
23.10.2018 16:00:00 20,4 13,4 15 8 NNW 1019,3 20 60
23.10.2018 15:00:00 20,8 13,0 16 9 NW 1019,8 20 60
23.10.2018 14:00:00 22,4 11,5 15 8 NNO 1019,9 20 60
23.10.2018 13:00:00 21,6 11,3 29 16 NNO 1020,3 20 60
23.10.2018 12:00:00 21,0 11,4 26 14 NNO 1020,3 20 60
23.10.2018 11:00:00 18,8 11,6 28 15 NNO 1020,5 20 60
23.10.2018 10:00:00 17,8 11,6 21 11 NNO 1020,4 20 60
23.10.2018 09:00:00 15,6 10,8 16 9 NO 1020,1 20 48
23.10.2018 08:00:00 15,0 10,8 15 8 NO 1019,2 20 0
23.10.2018 07:00:00 15,0 10,6 24 13 NO 1019,0 20 -
23.10.2018 06:00:00 15,2 10,8 21 11 NO 1019,0 20 -
23.10.2018 05:00:00 15,0 9,8 16 9 NO 1019,2 20 -
23.10.2018 04:00:00 15,0 9,6 24 13 NO 1019,2 20 -
23.10.2018 03:00:00 15,0 9,2 16 9 ONO 1018,8 20 -
23.10.2018 02:00:00 14,8 9,0 15 8 NO 1018,5 20 -
23.10.2018 01:00:00 14,4 8,6 16 9 ONO 1018,5 20 -
23.10.2018 00:00:00 14,4 10,0 13 7 NO 1018,5 20 -
22.10.2018 23:00:00 15,0 10,6 13 7 NO 1018,5 20 -
22.10.2018 22:00:00 15,2 9,4 8 4 ONO 1018,2 20 -
22.10.2018 21:00:00 15,2 8,2 15 8 NNO 1017,1 20 -
22.10.2018 20:00:00 15,4 8,9 18 10 NNO 1017,1 20 0
22.10.2018 19:00:00 15,4 8,6 21 11 NO 1016,2 20 48
22.10.2018 18:00:00 17,6 7,9 31 17 NO 1015,6 20 60
22.10.2018 17:00:00 19,0 7,1 28 15 NO 1015,4 20 60
22.10.2018 16:00:00 19,6 6,7 31 17 NO 1014,7 20 60
22.10.2018 15:00:00 20,0 6,7 31 17 NNO 1015,3 20 60
22.10.2018 14:00:00 20,0 6,7 24 13 NO 1015,6 20 60
22.10.2018 13:00:00 19,8 8,2 24 13 NO 1015,8 20 60
22.10.2018 12:00:00 18,8 7,3 26 14 NO 1015,9 20 60
22.10.2018 11:00:00 18,2 8,5 34 18 NO 1016,0 20 60
22.10.2018 10:00:00 16,4 8,6 39 21 NO 1016,1 20 60
22.10.2018 09:00:00 15,2 8,2 34 18 ONO 1016,2 20 0
22.10.2018 08:00:00 15,2 8,7 42 23 ONO 1015,1 20 0
22.10.2018 07:00:00 15,8 9,5 37 20 ONO 1015,2 20 -
22.10.2018 06:00:00 16,4 12,0 31 17 ONO 1015,1 20 -
22.10.2018 05:00:00 17,0 16,2 28 15 ONO 1015,0 20 -
22.10.2018 04:00:00 17,4 15,7 18 10 NO 1015,0 15 -
22.10.2018 03:00:00 18,2 16,7 13 7 NNO 1015,9 15 -
22.10.2018 02:00:00 18,8 18,2 9 5 NNO 1015,9 12 -
22.10.2018 01:00:00 20,0 18,0 9 5 N 1015,8 12 -
22.10.2018 00:00:00 20,0 18,1 11 6 N 1015,8 12 -
21.10.2018 23:00:00 20,0 18,1 13 7 W 1015,8 12 -
21.10.2018 22:00:00 20,0 18,1 11 6 O 1015,8 12 -
21.10.2018 21:00:00 20,0 18,1 15 8 W 1015,8 12 -
21.10.2018 20:00:00 20,2 19,0 9 5 W 1015,8 12 0
21.10.2018 19:00:00 20,6 18,4 11 6 W 1015,6 12 0
21.10.2018 18:00:00 21,6 18,2 11 6 NNO 1015,7 15 60
21.10.2018 17:00:00 22,0 18,4 13 7 WNW 1016,5 12 60
21.10.2018 16:00:00 22,0 18,6 15 8 WNW 1016,7 12 60
21.10.2018 15:00:00 22,2 18,6 15 8 W 1017,4 12 60
21.10.2018 14:00:00 22,0 18,4 16 9 WNW 1018,5 12 48
21.10.2018 13:00:00 23,0 18,8 8 4 WNW 1018,6 12 60
21.10.2018 12:00:00 22,6 18,6 5 3 ONO 1018,9 12 60
21.10.2018 11:00:00 21,0 18,0 5 3 WNW 1019,8 8 60
21.10.2018 10:00:00 20,0 17,6 5 3 NW 1019,9 8 42
21.10.2018 09:00:00 18,8 17,0 2 1 NNW 1019,5 7 0
21.10.2018 08:00:00 18,8 16,8 8 4 NNW 1019,4 20 0
21.10.2018 07:00:00 19,0 17,0 8 4 NNW 1019,7 15 -
21.10.2018 06:00:00 19,2 18,2 5 3 NO 1019,9 15 -
21.10.2018 05:00:00 19,2 18,2 8 4 NNO 1019,9 15 -
21.10.2018 04:00:00 - - - - - - - -
21.10.2018 03:00:00 19,2 16,8 11 6 NNO 1020,6 15 -
21.10.2018 02:00:00 19,4 16,8 11 6 NNO 1020,5 15 -
21.10.2018 01:00:00 19,8 15,2 16 9 NNO 1020,7 15 -
21.10.2018 00:00:00 19,8 17,8 21 11 NO 1020,9 15 -
20.10.2018 23:00:00 20,0 18,3 22 12 NO 1020,1 15 -
20.10.2018 22:00:00 20,2 19,2 16 9 NO 1020,9 15 -
20.10.2018 21:00:00 20,4 19,4 18 10 NNO 1020,9 15 -
20.10.2018 20:00:00 20,4 18,0 13 7 NNO 1020,3 15 0
20.10.2018 19:00:00 21,0 18,4 18 10 N 1019,8 20 6
20.10.2018 18:00:00 23,4 18,7 16 9 N 1019,6 20 60
20.10.2018 17:00:00 25,0 19,6 11 6 N 1019,5 20 60
20.10.2018 16:00:00 25,0 19,6 11 6 N 1020,1 20 60
20.10.2018 15:00:00 25,0 18,0 13 7 NNO 1020,3 20 60
20.10.2018 14:00:00 23,6 20,9 8 4 NNW 1020,5 20 60
20.10.2018 13:00:00 23,2 21,1 8 4 WNW 1020,8 20 60
20.10.2018 12:00:00 23,0 19,8 0 0 N 1020,5 20 60
20.10.2018 11:00:00 23,0 20,3 0 0 N 1020,5 20 60
20.10.2018 10:00:00 21,0 19,3 8 4 N 1020,5 20 0
20.10.2018 09:00:00 20,6 18,4 9 5 NNW 1019,9 15 0
20.10.2018 08:00:00 20,4 19,4 5 3 W 1018,9 20 0
20.10.2018 07:00:00 20,4 16,4 4 2 N 1018,8 20 -
20.10.2018 06:00:00 20,0 15,4 4 2 NW 1018,6 20 -
20.10.2018 05:00:00 19,8 18,1 2 1 NNO 1018,6 20 -
20.10.2018 04:00:00 20,0 17,8 2 1 NNO 1018,6 20 -
20.10.2018 03:00:00 20,0 19,2 4 2 NNW 1018,5 20 -
20.10.2018 02:00:00 21,0 20,2 4 2 NNW 1018,3 20 -
20.10.2018 01:00:00 21,0 20,2 2 1 W 1018,0 20 -
20.10.2018 00:00:00 22,0 20,3 4 2 WNW 1017,7 20 -
19.10.2018 23:00:00 22,0 17,4 2 1 N 1017,6 20 -
19.10.2018 22:00:00 22,0 20,3 8 4 W 1017,4 20 -
19.10.2018 21:00:00 22,0 19,7 9 5 ZW 1016,8 20 -
19.10.2018 20:00:00 22,0 19,4 8 4 Z 1016,4 20 0
19.10.2018 19:00:00 22,0 19,7 9 5 WNW 1015,7 20 0
19.10.2018 18:00:00 23,0 18,5 5 3 NW 1014,6 20 48
19.10.2018 17:00:00 23,6 18,9 11 6 W 1014,2 20 60
19.10.2018 16:00:00 24,0 20,3 11 6 WZW 1013,8 20 60
19.10.2018 15:00:00 25,0 21,3 9 5 OZO 1013,7 20 60
19.10.2018 14:00:00 26,8 19,2 8 4 Z 1014,0 20 60
19.10.2018 13:00:00 27,4 19,0 11 6 O 1014,2 20 60
19.10.2018 12:00:00 26,0 19,9 18 10 ONO 1014,2 20 60
19.10.2018 11:00:00 23,2 19,0 29 16 ONO 1013,6 20 36
19.10.2018 10:00:00 22,0 18,0 29 16 NO 1013,6 20 0
19.10.2018 09:00:00 20,0 18,0 34 18 NO 1012,5 20 0
19.10.2018 08:00:00 19,8 18,1 18 10 NO 1012,4 20 0
19.10.2018 07:00:00 20,0 17,8 34 18 NO 1011,4 20 -
19.10.2018 06:00:00 20,2 17,6 29 16 NO 1011,4 20 -
19.10.2018 05:00:00 20,4 17,8 31 17 ONO 1010,8 20 -
19.10.2018 04:00:00 20,2 17,6 22 12 ONO 1011,4 20 -
19.10.2018 03:00:00 20,4 17,8 18 10 ONO 1011,0 20 -
19.10.2018 02:00:00 20,8 18,4 24 13 ONO 1010,9 20 -
19.10.2018 01:00:00 20,6 18,2 34 18 ONO 1010,7 20 -
19.10.2018 00:00:00 20,2 18,9 28 15 ONO 1010,8 20 -
18.10.2018 23:00:00 20,4 19,1 22 12 NO 1010,6 20 -
18.10.2018 22:00:00 21,2 19,5 22 12 ONO 1010,3 20 -
18.10.2018 21:00:00 21,4 19,5 31 17 O 1009,5 20 -
18.10.2018 20:00:00 21,8 19,4 34 18 ONO 1008,7 20 -
18.10.2018 19:00:00 22,6 19,0 46 25 ONO 1007,4 20 0
18.10.2018 18:00:00 23,6 19,1 37 20 ONO 1007,3 20 42
18.10.2018 17:00:00 24,0 19,3 28 15 ONO 1007,3 20 42
18.10.2018 16:00:00 24,4 18,6 44 24 ONO 1006,9 20 30
18.10.2018 15:00:00 25,0 18,0 39 21 ONO 1007,2 20 60
18.10.2018 14:00:00 25,0 18,0 39 21 ONO 1007,2 20 60
18.10.2018 13:00:00 25,0 18,7 35 19 ONO 1008,2 20 42
18.10.2018 12:00:00 24,0 18,4 35 19 ONO 1008,3 20 -
18.10.2018 11:00:00 22,8 18,8 35 19 NO 1008,4 20 0
18.10.2018 10:00:00 20,8 17,8 34 18 ONO 1008,7 20 0
18.10.2018 09:00:00 20,4 16,8 31 17 ONO 1008,8 20 0
18.10.2018 08:00:00 20,2 17,4 21 11 ONO 1008,5 20 0
18.10.2018 07:00:00 20,0 17,0 34 18 ONO 1008,5 20 -
18.10.2018 06:00:00 20,0 19,0 28 15 NO 1009,2 20 -
18.10.2018 05:00:00 20,0 18,3 24 13 NO 1009,6 20 -
18.10.2018 04:00:00 20,2 18,5 29 16 NO 1009,6 20 -
18.10.2018 03:00:00 20,2 18,2 31 17 NO 1010,9 20 -
18.10.2018 02:00:00 20,2 17,0 22 12 NO 1011,1 20 -
18.10.2018 01:00:00 20,2 17,0 28 15 NO 1011,1 20 -
18.10.2018 00:00:00 20,0 16,5 24 13 NO 1011,1 20 -
17.10.2018 23:00:00 20,0 17,8 15 8 NO 1011,4 20 -
17.10.2018 22:00:00 20,0 18,7 18 10 NO 1011,4 20 -

tt = temperatuur
td = dauwpunt
ff = windsnelheid
dd = windrichting
ppp = luchtdruk
vv = zicht
sd = Zonneschijnduur

Weerstations in de omgeving